User: anonymous   Login
Location: St. Louis
(38.6270°N, 90.1994°W)
Time: 13:05:03
(UTC-06:00)
Language:

Courier 1B Rocket - Orbit

View from above orbital plane
View from above orbital plane
View from above satellite
View from above satellite

Ground track
Ground track

The orbit data is extracted from the following two-line orbital elements,

1 00059U 60013B   21334.26931547  .00000095  00000-0  13083-4 0  9997
2 00059  28.2496  11.4980 0189312  61.5089 300.4385 13.52990554 18187
Epoch (UTC): 30 November 2021 06:27:48
Eccentricity: 0.0189312
inclination: 28.2496°
perigee height: 920 km
apogee height: 1202 km
right ascension of ascending node: 11.4980°
argument of perigee: 61.5089°
revolutions per day: 13.52990554
mean anomaly at epoch: 300.4385°
orbit number at epoch: 1818

The dashed part of the orbit path shows where the satellite is in the earth's shadow,  

DLR